When you browse on this site, cookies collect data to enhance your experience and personalize the content and advertising you see.
Visit our Privacy Policy to learn more. By continuing to use the site, you agree to this use of cookies and data.
  • In Czech Republic
  • List of Countries
  • For 7 days
  • Water Temperature
  • Weather Map
  • Weather Widgets
  • user-avatar
    Login

    Hourly Weather Berlin

    Today, 14 December, Saturday

    Time Temperature Precipitation Wind Pressure Humidity
    00:00 +1°C° 0 mm 2 mps 735 mmHg 93%
    01:00 +1°C° 0 mm 2 mps 735 mmHg 95%
    02:00 +2°C° 0.2 mm 2 mps 735 mmHg 96%
    03:00 +1°C° 0.2 mm 3 mps 734 mmHg 96%
    04:00 +2°C° 0.2 mm 3 mps 734 mmHg 96%
    05:00 +2°C° 0.2 mm 3 mps 735 mmHg 94%
    06:00 +3°C° 0.2 mm 4 mps 735 mmHg 91%
    07:00 +3°C° 0 mm 4 mps 735 mmHg 87%
    08:00 +3°C° 0 mm 4 mps 735 mmHg 84%
    09:00 +3°C° 0 mm 4 mps 735 mmHg 82%
    10:00 +3°C° 0 mm 4 mps 735 mmHg 79%
    11:00 +3°C° 0.9 mm 4 mps 735 mmHg 84%
    12:00 +1°C° 0.9 mm 4 mps 736 mmHg 90%
    13:00 +1°C° 0.9 mm 4 mps 736 mmHg 95%
    14:00 +1°C° 0.4 mm 4 mps 737 mmHg 91%
    15:00 +3°C° 0.4 mm 4 mps 738 mmHg 87%
    16:00 +3°C° 0.4 mm 5 mps 739 mmHg 83%
    17:00 +3°C° 0 mm 5 mps 740 mmHg 82%
    18:00 +2°C° 0 mm 5 mps 740 mmHg 80%
    19:00 +2°C° 0 mm 5 mps 741 mmHg 79%
    20:00 +2°C° 0.3 mm 5 mps 742 mmHg 84%
    21:00 +2°C° 0.3 mm 5 mps 742 mmHg 88%
    22:00 +1°C° 0.3 mm 5 mps 742 mmHg 93%
    23:00 +2°C° 0.3 mm 5 mps 743 mmHg 90%

    Tomorrow, 15 December, Sunday

    Time Temperature Precipitation Wind Pressure Humidity
    00:00 +2°C° 0.3 mm 6 mps 744 mmHg 87%
    01:00 +2°C° 0.3 mm 6 mps 745 mmHg 85%
    02:00 +2°C° 0 mm 5 mps 745 mmHg 82%
    03:00 +1°C° 0 mm 5 mps 746 mmHg 80%
    04:00 +1°C° 0 mm 4 mps 746 mmHg 78%
    05:00 +1°C° 0 mm 4 mps 746 mmHg 77%
    06:00 +1°C° 0 mm 4 mps 746 mmHg 76%
    07:00 +1°C° 0 mm 5 mps 746 mmHg 75%
    08:00 +2°C° 0.4 mm 5 mps 745 mmHg 80%
    09:00 +3°C° 0.4 mm 6 mps 745 mmHg 85%
    10:00 +3°C° 0.4 mm 6 mps 744 mmHg 91%
    11:00 +5°C° 0.5 mm 6 mps 744 mmHg 86%
    12:00 +7°C° 0.5 mm 6 mps 745 mmHg 82%
    13:00 +8°C° 0.5 mm 6 mps 745 mmHg 78%
    14:00 +7°C° 0 mm 5 mps 746 mmHg 77%
    15:00 +6°C° 0 mm 5 mps 747 mmHg 76%
    16:00 +5°C° 0 mm 4 mps 748 mmHg 75%
    17:00 +5°C° 0 mm 4 mps 749 mmHg 76%
    18:00 +5°C° 0 mm 4 mps 749 mmHg 77%
    19:00 +4°C° 0 mm 4 mps 750 mmHg 78%
    20:00 +4°C° 0 mm 4 mps 751 mmHg 78%
    21:00 +4°C° 0 mm 4 mps 751 mmHg 79%
    22:00 +4°C° 0 mm 4 mps 752 mmHg 79%
    23:00 +4°C° 0 mm 4 mps 752 mmHg 81%

    Day after tomorrow, 16 December, Monday

    Time Temperature Precipitation Wind Pressure Humidity
    00:00 +4°C° 0 mm 3 mps 753 mmHg 83%
    01:00 +4°C° 0 mm 3 mps 753 mmHg 85%
    02:00 +3°C° 0 mm 3 mps 753 mmHg 87%
    03:00 +3°C° 0 mm 3 mps 753 mmHg 89%
    04:00 +4°C° 0 mm 2 mps 753 mmHg 91%
    05:00 +3°C° 0 mm 3 mps 753 mmHg 91%
    06:00 +3°C° 0 mm 3 mps 753 mmHg 91%
    07:00 +3°C° 0 mm 3 mps 753 mmHg 91%
    08:00 +4°C° 0 mm 3 mps 754 mmHg 91%
    09:00 +5°C° 0 mm 3 mps 754 mmHg 91%
    10:00 +5°C° 0 mm 3 mps 754 mmHg 92%
    11:00 +7°C° 0 mm 3 mps 754 mmHg 92%
    12:00 +7°C° 0 mm 3 mps 754 mmHg 92%
    13:00 +8°C° 0 mm 3 mps 754 mmHg 93%
    14:00 +7°C° 0 mm 3 mps 754 mmHg 92%
    15:00 +7°C° 0 mm 3 mps 753 mmHg 92%
    16:00 +7°C° 0 mm 2 mps 753 mmHg 92%
    17:00 +7°C° 0 mm 2 mps 753 mmHg 90%
    18:00 +7°C° 0 mm 2 mps 753 mmHg 89%
    19:00 +7°C° 0 mm 2 mps 753 mmHg 87%
    20:00 +5°C° 0 mm 3 mps 753 mmHg 87%
    21:00 +5°C° 0 mm 3 mps 753 mmHg 87%
    22:00 +5°C° 0 mm 3 mps 752 mmHg 87%
    23:00 +5°C° 0 mm 3 mps 752 mmHg 87%

    17 December, Tuesday

    Time Temperature Precipitation Wind Pressure Humidity
    00:00 +5°C° 0 mm 3 mps 752 mmHg 88%
    01:00 +5°C° 0 mm 3 mps 752 mmHg 88%
    02:00 +5°C° 0 mm 3 mps 751 mmHg 87%
    03:00 +4°C° 0 mm 3 mps 751 mmHg 87%
    04:00 +4°C° 0 mm 3 mps 751 mmHg 86%
    05:00 +5°C° 0 mm 3 mps 751 mmHg 83%
    06:00 +5°C° 0 mm 4 mps 751 mmHg 81%
    07:00 +5°C° 0 mm 4 mps 751 mmHg 79%
    08:00 +6°C° 0 mm 4 mps 751 mmHg 77%
    09:00 +6°C° 0 mm 4 mps 752 mmHg 75%
    10:00 +8°C° 0 mm 3 mps 752 mmHg 73%
    11:00 +9°C° 0 mm 3 mps 752 mmHg 71%
    12:00 +9°C° 0 mm 3 mps 752 mmHg 68%
    13:00 +10°C° 0 mm 4 mps 752 mmHg 66%
    14:00 +10°C° 0 mm 3 mps 752 mmHg 69%
    15:00 +9°C° 0 mm 3 mps 752 mmHg 73%
    16:00 +9°C° 0 mm 3 mps 752 mmHg 76%
    17:00 +9°C° 0 mm 3 mps 752 mmHg 77%
    18:00 +9°C° 0 mm 3 mps 753 mmHg 77%
    19:00 +8°C° 0 mm 3 mps 753 mmHg 78%
    20:00 +8°C° 0 mm 3 mps 753 mmHg 79%
    21:00 +8°C° 0 mm 3 mps 753 mmHg 80%
    22:00 +8°C° 0 mm 3 mps 753 mmHg 81%
    23:00 +8°C° 0 mm 3 mps 753 mmHg 80%

    18 December, Wednesday

    Time Temperature Precipitation Wind Pressure Humidity
    00:00 +8°C° 0 mm 3 mps 753 mmHg 78%
    01:00 +8°C° 0 mm 3 mps 753 mmHg 76%
    02:00 +7°C° 0 mm 4 mps 753 mmHg 75%
    03:00 +7°C° 0 mm 4 mps 753 mmHg 74%
    04:00 +7°C° 0 mm 4 mps 753 mmHg 72%
    05:00 +7°C° 0 mm 4 mps 753 mmHg 73%
    06:00 +7°C° 0 mm 4 mps 754 mmHg 74%
    07:00 +8°C° 0 mm 3 mps 754 mmHg 74%
    08:00 +8°C° 0 mm 3 mps 754 mmHg 75%
    09:00 +8°C° 0 mm 3 mps 755 mmHg 76%
    10:00 +8°C° 0 mm 3 mps 756 mmHg 76%
    11:00 +9°C° 0 mm 3 mps 756 mmHg 78%
    12:00 +9°C° 0 mm 3 mps 757 mmHg 80%
    13:00 +10°C° 0 mm 3 mps 757 mmHg 82%
    14:00 +9°C° 0 mm 2 mps 758 mmHg 84%
    15:00 +9°C° 0 mm 2 mps 758 mmHg 86%
    16:00 +9°C° 0 mm 1 mps 759 mmHg 89%
    17:00 +8°C° 0 mm 1 mps 759 mmHg 88%
    18:00 +8°C° 0 mm 1 mps 759 mmHg 88%
    19:00 +7°C° 0 mm 2 mps 760 mmHg 87%
    20:00 +6°C° 0 mm 2 mps 760 mmHg 87%
    21:00 +6°C° 0 mm 2 mps 760 mmHg 86%
    22:00 +5°C° 0 mm 2 mps 760 mmHg 86%
    23:00 +5°C° 0 mm 2 mps 760 mmHg 86%

    19 December, Thursday

    Time Temperature Precipitation Wind Pressure Humidity
    00:00 +5°C° 0 mm 2 mps 760 mmHg 86%
    01:00 +5°C° 0 mm 2 mps 760 mmHg 87%
    02:00 +5°C° 0 mm 2 mps 759 mmHg 88%
    03:00 +3°C° 0 mm 3 mps 759 mmHg 89%
    04:00 +3°C° 0 mm 3 mps 759 mmHg 90%
    05:00 +3°C° 0 mm 3 mps 759 mmHg 89%
    06:00 +4°C° 0 mm 3 mps 759 mmHg 88%
    07:00 +4°C° 0 mm 3 mps 759 mmHg 87%
    08:00 +4°C° 0 mm 4 mps 759 mmHg 87%
    09:00 +4°C° 0 mm 4 mps 759 mmHg 88%
    10:00 +4°C° 0 mm 4 mps 758 mmHg 89%
    11:00 +4°C° 0 mm 4 mps 758 mmHg 87%
    12:00 +5°C° 0 mm 4 mps 758 mmHg 86%
    13:00 +5°C° 0 mm 4 mps 757 mmHg 84%
    14:00 +5°C° 0 mm 5 mps 757 mmHg 85%
    15:00 +5°C° 0 mm 5 mps 756 mmHg 85%
    16:00 +3°C° 0 mm 5 mps 756 mmHg 85%
    17:00 +3°C° 0 mm 5 mps 755 mmHg 85%
    18:00 +3°C° 0 mm 5 mps 755 mmHg 84%
    19:00 +3°C° 0 mm 5 mps 754 mmHg 84%
    20:00 +3°C° 0.3 mm 5 mps 754 mmHg 86%
    21:00 +3°C° 0.3 mm 5 mps 753 mmHg 88%
    22:00 +3°C° 0.3 mm 5 mps 753 mmHg 90%
    23:00 +5°C° 0.2 mm 5 mps 752 mmHg 90%
    Show more